Starlink 11366

operational
NORAD ID: 61693 Int'l Des: 2024-195 Owner: SPXS Country: US Constellation: starlink
LEOCIRCULAR

Über Starlink 11366

Beschreibung wird geladen...

Live-Position

3D-Globus wird geladen...

Nächste Überflüge

Höhenverlauf

Altitude vs Time

uPlot chart will show altitude changes over time

Zweizeiliger Elementsatz

1 61693U 24195G 25349.71101164 .00001303 00000-0 15624-4 0 9999
2 61693 53.1599 80.2603 0001492 62.7132 297.4038 15.69701194 65844
Epoch: 15. Dez. 2025 • Age: 34 hours

Aktueller Status

Höhe 360.1 km
Geschwindigkeit 7.70 km/s
Subsatellitenpunkt 10.07°N, 108.71°E
Startdatum 30. Okt. 2024
Alter 1.1 years
Typ internet

Technische Details

Klassifizierung Payload
Masse 960.00 kg
Trockenmasse 910.00 kg
Gesamtmasse 960.00 kg
Länge 0.30 m
Durchmesser 4.10 m
Spannweite 29.00 m
Form Box + pan
Hersteller SPXS
Bus-Typ Starlink V2MD
Phasenstatus In Orbit
Besitzer/Staat SPXS/US

Große Konstellationen

Loading constellations...